QPF
0.04 0.03 0.04 0.03 0.02 0.02 0.01 0.01 0.01 0.02 0.03 0.04 0.04 0.04 0.04 0.04 0.05 0.06 0.06 0.06 0.06 0.07 0.07 0.06 0.05 0.04 0.03 0.02 0.01 0.02 0.02 0.02 0.01 0.01 0.01 0.01 0.01 0.00 0.00 0.00 0.00 0.00 0.00
0.02 0.02 0.02 0.01 0.02 0.02 0.01 0.01 0.01 0.01 0.01 0.01 0.02 0.03 0.03 0.02 0.02 0.02 0.03 0.03 0.05 0.06 0.06 0.07 0.07 0.07 0.06 0.06 0.04 0.04 0.04 0.04 0.04 0.02 0.02 0.01 0.01 0.01 0.00 0.00 0.00 0.01 0.00
0.02 0.02 0.02 0.01 0.01 0.01 0.01 0.01 0.01 0.00 0.00 0.00 0.01 0.02 0.03 0.02 0.01 0.01 0.01 0.01 0.02 0.04 0.05 0.07 0.09 0.09 0.09 0.09 0.08 0.08 0.08 0.08 0.08 0.04 0.03 0.02 0.01 0.01 0.01 0.01 0.01 0.01 0.00
0.02 0.02 0.02 0.01 0.01 0.01 0.01 0.02 0.01 0.00 0.00 0.00 0.01 0.02 0.02 0.02 0.02 0.01 0.01 0.01 0.01 0.02 0.04 0.05 0.06 0.07 0.08 0.10 0.12 0.13 0.13 0.12 0.11 0.07 0.04 0.03 0.03 0.03 0.02 0.01 0.01 0.01 0.00
0.02 0.02 0.02 0.02 0.01 0.01 0.01 0.01 0.01 0.01 0.01 0.00 0.00 0.01 0.01 0.01 0.01 0.01 0.01 0.01 0.01 0.01 0.02 0.04 0.05 0.05 0.06 0.10 0.13 0.15 0.16 0.13 0.11 0.09 0.08 0.07 0.07 0.05 0.04 0.03 0.02 0.01 0.01
0.03 0.03 0.02 0.01 0.01 0.01 0.01 0.02 0.01 0.01 0.00 0.00 0.00 0.00 0.01 0.01 0.00 0.01 0.01 0.00 0.01 0.01 0.01 0.02 0.03 0.04 0.06 0.08 0.10 0.11 0.13 0.13 0.11 0.10 0.11 0.09 0.08 0.07 0.06 0.05 0.04 0.03 0.02
0.03 0.04 0.02 0.01 0.00 0.00 0.01 0.02 0.01 0.01 0.01 0.01 0.01 0.01 0.01 0.00 0.00 0.01 0.01 0.00 0.01 0.01 0.02 0.02 0.01 0.01 0.03 0.04 0.05 0.07 0.10 0.11 0.11 0.10 0.11 0.11 0.12 0.10 0.08 0.07 0.07 0.06 0.05
0.04 0.03 0.02 0.01 0.00 0.00 0.01 0.02 0.02 0.02 0.01 0.00 0.00 0.00 0.00 0.00 0.00 0.00 0.00 0.00 0.00 0.01 0.01 0.02 0.01 0.00 0.01 0.01 0.02 0.03 0.06 0.09 0.11 0.11 0.11 0.10 0.09 0.10 0.09 0.08 0.07 0.06 0.06
0.03 0.02 0.01 0.00 0.00 0.00 0.01 0.02 0.02 0.01 0.00 0.00 0.00 0.00 0.00 0.00 0.00 0.00 0.00 0.00 0.00 0.00 0.00 0.00 0.01 0.01 0.01 0.01 0.01 0.02 0.03 0.04 0.06 0.11 0.13 0.10 0.08 0.07 0.07 0.08 0.08 0.07 0.06
0.03 0.02 0.01 0.00 0.00 0.00 0.00 0.01 0.02 0.01 0.00 0.00 0.00 0.00 0.00 0.00 0.00 0.00 0.00 0.00 0.00 0.00 0.00 0.00 0.00 0.01 0.01 0.00 0.01 0.01 0.02 0.02 0.03 0.07 0.11 0.10 0.09 0.07 0.07 0.07 0.07 0.09 0.08
0.02 0.01 0.01 0.00 0.00 0.00 0.00 0.01 0.01 0.01 0.00 0.00 0.00 0.00 0.00 0.00 0.00 0.00 0.00 0.00 0.00 0.00 0.00 0.00 0.00 0.00 0.00 0.00 0.00 0.00 0.01 0.01 0.02 0.03 0.05 0.06 0.05 0.05 0.07 0.08 0.08 0.10 0.10
0.01 0.01 0.01 0.00 0.00 0.00 0.01 0.01 0.01 0.00 0.00 0.00 0.00 0.00 0.00 0.00 0.00 0.00 0.00 0.00 0.00 0.00 0.00 0.00 0.00 0.00 0.00 0.00 0.00 0.00 0.00 0.00 0.01 0.02 0.03 0.04 0.04 0.04 0.05 0.06 0.07 0.09 0.10
0.01 0.00 0.00 0.00 0.00 0.00 0.00 0.01 0.01 0.00 0.00 0.00 0.00 0.00 0.00 0.00 0.00 0.00 0.00 0.00 0.00 0.00 0.00 0.00 0.00 0.00 0.00 0.00 0.00 0.00 0.00 0.00 0.00 0.00 0.00 0.01 0.02 0.02 0.03 0.04 0.04 0.06 0.08
0.01 0.00 0.00 0.00 0.00 0.00 0.00 0.01 0.01 0.00 0.00 0.00 0.00 0.00 0.00 0.00 0.00 0.00 0.00 0.00 0.00 0.00 0.00 0.00 0.00 0.00 0.00 0.00 0.00 0.00 0.00 0.00 0.00 0.00 0.00 0.00 0.00 0.01 0.01 0.01 0.02 0.03 0.04
0.00 0.00 0.00 0.00 0.00 0.00 0.00 0.00 0.00 0.00 0.00 0.00 0.00 0.00 0.00 0.00 0.00 0.00 0.00 0.00 0.00 0.00 0.00 0.00 0.00 0.00 0.00 0.00 0.00 0.00 0.00 0.00 0.00 0.00 0.00 0.00 0.00 0.00 0.00 0.00 0.01 0.01 0.02
0.00 0.02 0.01 0.00 0.00 0.00 0.00 0.00 0.00 0.00 0.00 0.00 0.00 0.00 0.00 0.00 0.00 0.00 0.00 0.00 0.00 0.00 0.00 0.00 0.00 0.00 0.00 0.00 0.00 0.00 0.00 0.00 0.00 0.00 0.00 0.00 0.00 0.00 0.00 0.00 0.00 0.00 0.01
0.01 0.02 0.01 0.01 0.00 0.00 0.00 0.00 0.00 0.00 0.00 0.00 0.00 0.00 0.00 0.00 0.00 0.00 0.00 0.00 0.00 0.00 0.00 0.00 0.00 0.00 0.00 0.00 0.00 0.00 0.00 0.00 0.00 0.00 0.00 0.00 0.00 0.00 0.00 0.00 0.00 0.00 0.00
0.02 0.02 0.01 0.01 0.01 0.00 0.00 0.00 0.00 0.00 0.00 0.00 0.00 0.00 0.00 0.00 0.00 0.00 0.00 0.00 0.00 0.00 0.00 0.00 0.00 0.00 0.00 0.00 0.00 0.00 0.00 0.00 0.00 0.00 0.00 0.00 0.00 0.00 0.00 0.00 0.00 0.00 0.00
0.01 0.01 0.01 0.01 0.01 0.01 0.01 0.01 0.01 0.01 0.00 0.00 0.01 0.00 0.01 0.01 0.01 0.01 0.01 0.00 0.00 0.00 0.00 0.00 0.00 0.00 0.00 0.00 0.00 0.00 0.00 0.00 0.00 0.00 0.00 0.00 0.00 0.00 0.00 0.00 0.00 0.00 0.00
0.02 0.01 0.01 0.01 0.01 0.01 0.01 0.01 0.01 0.01 0.01 0.01 0.01 0.01 0.01 0.01 0.01 0.01 0.01 0.01 0.00 0.00 0.00 0.00 0.00 0.00 0.00 0.00 0.00 0.00 0.00 0.00 0.00 0.00 0.00 0.00 0.00 0.00 0.00 0.00 0.00 0.00 0.00
0.02 0.02 0.02 0.01 0.01 0.01 0.01 0.01 0.01 0.00 0.00 0.00 0.00 0.00 0.00 0.01 0.01 0.00 0.00 0.00 0.00 0.00 0.00 0.00 0.00 0.00 0.00 0.00 0.00 0.00 0.00 0.00 0.00 0.00 0.00 0.00 0.00 0.00 0.00 0.00 0.00 0.00 0.00
0.03 0.02 0.01 0.01 0.00 0.00 0.00 0.00 0.00 0.00 0.00 0.00 0.00 0.00 0.00 0.00 0.00 0.00 0.00 0.00 0.00 0.00 0.00 0.00 0.00 0.00 0.00 0.00 0.00 0.00 0.00 0.00 0.00 0.00 0.00 0.00 0.00 0.00 0.00 0.00 0.00 0.00 0.00
0.03 0.02 0.01 0.01 0.00 0.00 0.00 0.00 0.00 0.00 0.00 0.00 0.00 0.00 0.00 0.00 0.00 0.00 0.00 0.00 0.00 0.00 0.00 0.00 0.00 0.00 0.00 0.00 0.00 0.00 0.00 0.00 0.00 0.00 0.00 0.00 0.00 0.00 0.00 0.00 0.00 0.00 0.00
0.05 0.04 0.02 0.02 0.01 0.01 0.01 0.01 0.01 0.01 0.01 0.01 0.00 0.00 0.00 0.00 0.00 0.00 0.00 0.00 0.00 0.00 0.00 0.00 0.00 0.00 0.00 0.00 0.00 0.00 0.00 0.00 0.00 0.00 0.00 0.00 0.00 0.00 0.00 0.00 0.00 0.00 0.00
0.09 0.07 0.05 0.04 0.03 0.02 0.03 0.03 0.03 0.02 0.02 0.01 0.01 0.01 0.01 0.00 0.01 0.01 0.01 0.01 0.01 0.00 0.00 0.01 0.00 0.00 0.00 0.00 0.00 0.00 0.00 0.00 0.00 0.00 0.00 0.00 0.00 0.00 0.00 0.00 0.00 0.00 0.00
0.12 0.10 0.09 0.07 0.06 0.06 0.07 0.07 0.08 0.08 0.05 0.03 0.02 0.02 0.02 0.02 0.02 0.02 0.01 0.01 0.01 0.01 0.01 0.01 0.01 0.01 0.01 0.01 0.01 0.01 0.01 0.00 0.00 0.00 0.00 0.00 0.00 0.00 0.00 0.00 0.00 0.00 0.00
MSLP
1016.59 1016.82 1017.00 1017.15 1017.28 1017.40 1017.53 1017.65 1017.77 1017.87 1017.95 1018.00 1018.03 1018.06 1018.10 1018.16 1018.25 1018.37 1018.52 1018.67 1018.82 1018.97 1019.10 1019.23 1019.35 1019.48 1019.60 1019.73 1019.86 1019.99 1020.11 1020.22 1020.34 1020.47 1020.62 1020.79 1020.99 1021.21 1021.43 1021.63 1021.82 1021.97 1022.08
1016.51 1016.75 1016.96 1017.14 1017.31 1017.48 1017.63 1017.78 1017.92 1018.05 1018.14 1018.22 1018.27 1018.30 1018.33 1018.37 1018.42 1018.49 1018.57 1018.67 1018.78 1018.90 1019.03 1019.17 1019.32 1019.46 1019.61 1019.74 1019.86 1019.96 1020.05 1020.14 1020.24 1020.37 1020.52 1020.71 1020.93 1021.17 1021.41 1021.62 1021.81 1021.96 1022.08
1016.34 1016.59 1016.84 1017.07 1017.30 1017.52 1017.72 1017.92 1018.09 1018.25 1018.37 1018.47 1018.53 1018.58 1018.60 1018.61 1018.62 1018.63 1018.64 1018.68 1018.73 1018.82 1018.93 1019.06 1019.22 1019.38 1019.54 1019.67 1019.78 1019.87 1019.94 1020.00 1020.08 1020.19 1020.34 1020.54 1020.76 1021.01 1021.25 1021.48 1021.67 1021.83 1021.96
1016.11 1016.38 1016.66 1016.95 1017.24 1017.52 1017.79 1018.03 1018.25 1018.44 1018.59 1018.71 1018.80 1018.85 1018.88 1018.87 1018.83 1018.79 1018.73 1018.70 1018.69 1018.72 1018.80 1018.92 1019.07 1019.23 1019.40 1019.54 1019.65 1019.72 1019.77 1019.82 1019.87 1019.96 1020.10 1020.28 1020.50 1020.74 1020.98 1021.21 1021.40 1021.57 1021.72
1015.85 1016.12 1016.44 1016.79 1017.15 1017.50 1017.82 1018.11 1018.37 1018.59 1018.77 1018.91 1019.03 1019.10 1019.13 1019.12 1019.06 1018.96 1018.86 1018.75 1018.67 1018.64 1018.67 1018.76 1018.89 1019.05 1019.22 1019.36 1019.47 1019.54 1019.58 1019.61 1019.65 1019.71 1019.82 1019.98 1020.18 1020.40 1020.62 1020.84 1021.03 1021.20 1021.37
1015.61 1015.88 1016.23 1016.63 1017.05 1017.45 1017.82 1018.15 1018.43 1018.67 1018.88 1019.05 1019.19 1019.29 1019.35 1019.35 1019.29 1019.17 1019.02 1018.86 1018.73 1018.63 1018.60 1018.64 1018.75 1018.89 1019.05 1019.20 1019.31 1019.38 1019.42 1019.44 1019.46 1019.51 1019.59 1019.71 1019.87 1020.05 1020.24 1020.43 1020.60 1020.77 1020.93
1015.42 1015.69 1016.06 1016.50 1016.95 1017.40 1017.80 1018.15 1018.44 1018.70 1018.92 1019.11 1019.29 1019.43 1019.53 1019.57 1019.53 1019.42 1019.26 1019.07 1018.88 1018.73 1018.64 1018.63 1018.69 1018.81 1018.95 1019.09 1019.21 1019.29 1019.34 1019.36 1019.37 1019.39 1019.44 1019.53 1019.63 1019.76 1019.90 1020.03 1020.17 1020.30 1020.46
1015.30 1015.57 1015.96 1016.42 1016.90 1017.37 1017.78 1018.13 1018.42 1018.67 1018.90 1019.12 1019.33 1019.53 1019.68 1019.78 1019.80 1019.72 1019.57 1019.37 1019.15 1018.95 1018.81 1018.74 1018.76 1018.83 1018.95 1019.09 1019.21 1019.30 1019.35 1019.38 1019.39 1019.40 1019.42 1019.45 1019.50 1019.56 1019.63 1019.70 1019.77 1019.86 1019.98
1015.27 1015.55 1015.95 1016.42 1016.91 1017.37 1017.78 1018.11 1018.38 1018.62 1018.85 1019.09 1019.34 1019.59 1019.82 1019.99 1020.08 1020.07 1019.96 1019.77 1019.54 1019.31 1019.12 1019.00 1018.96 1018.99 1019.08 1019.19 1019.30 1019.40 1019.46 1019.49 1019.50 1019.50 1019.49 1019.48 1019.47 1019.46 1019.45 1019.44 1019.44 1019.46 1019.53
1015.32 1015.61 1016.02 1016.50 1016.98 1017.43 1017.81 1018.12 1018.36 1018.58 1018.80 1019.06 1019.35 1019.65 1019.96 1020.21 1020.38 1020.44 1020.38 1020.22 1020.00 1019.76 1019.53 1019.36 1019.26 1019.24 1019.28 1019.36 1019.45 1019.54 1019.60 1019.64 1019.65 1019.63 1019.60 1019.55 1019.49 1019.42 1019.33 1019.24 1019.16 1019.11 1019.11
1015.42 1015.72 1016.15 1016.62 1017.10 1017.53 1017.88 1018.16 1018.37 1018.57 1018.78 1019.04 1019.36 1019.72 1020.08 1020.41 1020.65 1020.79 1020.79 1020.68 1020.48 1020.23 1019.98 1019.76 1019.61 1019.53 1019.51 1019.54 1019.60 1019.66 1019.71 1019.73 1019.73 1019.71 1019.66 1019.59 1019.49 1019.36 1019.22 1019.07 1018.92 1018.80 1018.73
1015.51 1015.85 1016.29 1016.77 1017.23 1017.64 1017.97 1018.22 1018.42 1018.59 1018.80 1019.06 1019.39 1019.77 1020.18 1020.56 1020.87 1021.07 1021.13 1021.06 1020.89 1020.65 1020.38 1020.13 1019.92 1019.78 1019.70 1019.66 1019.67 1019.68 1019.70 1019.71 1019.69 1019.66 1019.60 1019.52 1019.40 1019.25 1019.07 1018.87 1018.68 1018.50 1018.38
1015.58 1015.95 1016.41 1016.89 1017.35 1017.75 1018.07 1018.30 1018.48 1018.64 1018.83 1019.09 1019.42 1019.82 1020.24 1020.66 1021.01 1021.25 1021.36 1021.33 1021.19 1020.96 1020.69 1020.41 1020.16 1019.95 1019.80 1019.69 1019.62 1019.58 1019.55 1019.52 1019.48 1019.44 1019.38 1019.29 1019.18 1019.03 1018.85 1018.64 1018.42 1018.22 1018.06
1015.60 1016.01 1016.47 1016.96 1017.42 1017.82 1018.13 1018.36 1018.54 1018.70 1018.89 1019.13 1019.45 1019.83 1020.25 1020.67 1021.03 1021.30 1021.44 1021.45 1021.34 1021.13 1020.87 1020.58 1020.29 1020.03 1019.81 1019.63 1019.48 1019.36 1019.26 1019.19 1019.12 1019.06 1019.00 1018.93 1018.83 1018.71 1018.55 1018.36 1018.15 1017.96 1017.79
1015.57 1015.99 1016.47 1016.96 1017.43 1017.83 1018.15 1018.40 1018.58 1018.74 1018.92 1019.16 1019.45 1019.81 1020.20 1020.59 1020.94 1021.21 1021.37 1021.41 1021.34 1021.17 1020.92 1020.64 1020.33 1020.04 1019.76 1019.50 1019.27 1019.08 1018.91 1018.77 1018.67 1018.59 1018.53 1018.47 1018.40 1018.31 1018.20 1018.05 1017.88 1017.71 1017.55
1015.48 1015.92 1016.40 1016.89 1017.36 1017.77 1018.11 1018.37 1018.58 1018.75 1018.93 1019.14 1019.41 1019.73 1020.08 1020.43 1020.76 1021.02 1021.19 1021.25 1021.22 1021.09 1020.88 1020.62 1020.32 1020.01 1019.69 1019.38 1019.08 1018.81 1018.57 1018.37 1018.22 1018.12 1018.05 1018.00 1017.96 1017.91 1017.84 1017.74 1017.61 1017.48 1017.35
1015.36 1015.78 1016.25 1016.74 1017.21 1017.63 1017.99 1018.28 1018.51 1018.70 1018.88 1019.07 1019.31 1019.58 1019.88 1020.19 1020.48 1020.73 1020.90 1021.00 1021.01 1020.93 1020.78 1020.57 1020.30 1019.99 1019.66 1019.31 1018.97 1018.64 1018.34 1018.08 1017.88 1017.74 1017.65 1017.59 1017.56 1017.54 1017.50 1017.44 1017.36 1017.26 1017.16
1015.19 1015.60 1016.05 1016.53 1016.99 1017.42 1017.79 1018.10 1018.35 1018.55 1018.74 1018.92 1019.13 1019.36 1019.61 1019.88 1020.13 1020.37 1020.55 1020.68 1020.74 1020.73 1020.65 1020.50 1020.28 1020.01 1019.69 1019.34 1018.96 1018.59 1018.24 1017.94 1017.69 1017.50 1017.38 1017.30 1017.26 1017.24 1017.21 1017.17 1017.10 1017.02 1016.94
1014.98 1015.37 1015.80 1016.25 1016.70 1017.12 1017.50 1017.82 1018.08 1018.30 1018.49 1018.66 1018.85 1019.04 1019.26 1019.49 1019.72 1019.94 1020.14 1020.30 1020.42 1020.47 1020.47 1020.39 1020.25 1020.03 1019.75 1019.41 1019.04 1018.66 1018.28 1017.93 1017.64 1017.41 1017.24 1017.13 1017.05 1017.00 1016.95 1016.89 1016.81 1016.72 1016.63
1014.71 1015.08 1015.49 1015.92 1016.34 1016.75 1017.12 1017.44 1017.71 1017.93 1018.12 1018.29 1018.46 1018.63 1018.82 1019.02 1019.24 1019.45 1019.66 1019.86 1020.02 1020.14 1020.21 1020.21 1020.14 1019.99 1019.76 1019.47 1019.13 1018.75 1018.37 1018.01 1017.68 1017.41 1017.19 1017.02 1016.89 1016.79 1016.69 1016.58 1016.46 1016.34 1016.22
1014.37 1014.73 1015.12 1015.52 1015.92 1016.30 1016.65 1016.96 1017.22 1017.44 1017.63 1017.79 1017.95 1018.12 1018.29 1018.48 1018.68 1018.89 1019.11 1019.32 1019.51 1019.68 1019.81 1019.88 1019.88 1019.80 1019.64 1019.41 1019.11 1018.77 1018.40 1018.04 1017.70 1017.40 1017.14 1016.92 1016.72 1016.55 1016.38 1016.20 1016.02 1015.84 1015.68
1013.95 1014.31 1014.69 1015.06 1015.43 1015.78 1016.10 1016.39 1016.63 1016.84 1017.03 1017.20 1017.36 1017.52 1017.68 1017.86 1018.05 1018.25 1018.47 1018.68 1018.89 1019.08 1019.24 1019.35 1019.41 1019.39 1019.29 1019.12 1018.88 1018.59 1018.27 1017.93 1017.60 1017.29 1016.99 1016.73 1016.48 1016.23 1015.99 1015.74 1015.49 1015.25 1015.03
1013.46 1013.84 1014.20 1014.55 1014.89 1015.20 1015.49 1015.75 1015.98 1016.18 1016.36 1016.54 1016.70 1016.87 1017.03 1017.20 1017.38 1017.56 1017.76 1017.95 1018.14 1018.32 1018.48 1018.61 1018.69 1018.71 1018.67 1018.56 1018.39 1018.16 1017.89 1017.59 1017.29 1016.99 1016.69 1016.39 1016.10 1015.81 1015.50 1015.19 1014.88 1014.58 1014.31
1012.94 1013.32 1013.68 1014.01 1014.32 1014.60 1014.85 1015.08 1015.30 1015.50 1015.69 1015.87 1016.05 1016.23 1016.39 1016.56 1016.72 1016.87 1017.02 1017.17 1017.31 1017.45 1017.57 1017.68 1017.76 1017.80 1017.78 1017.72 1017.60 1017.44 1017.23 1016.99 1016.74 1016.46 1016.18 1015.89 1015.58 1015.26 1014.92 1014.58 1014.22 1013.88 1013.57
1012.42 1012.81 1013.15 1013.46 1013.74 1013.99 1014.22 1014.44 1014.65 1014.85 1015.06 1015.27 1015.47 1015.66 1015.83 1015.98 1016.12 1016.22 1016.32 1016.39 1016.47 1016.53 1016.59 1016.65 1016.69 1016.71 1016.71 1016.67 1016.60 1016.49 1016.34 1016.16 1015.96 1015.73 1015.49 1015.22 1014.92 1014.61 1014.27 1013.91 1013.55 1013.20 1012.87
1011.93 1012.31 1012.64 1012.93 1013.18 1013.41 1013.63 1013.85 1014.06 1014.29 1014.52 1014.76 1014.99 1015.20 1015.38 1015.52 1015.62 1015.68 1015.70 1015.70 1015.68 1015.66 1015.63 1015.62 1015.60 1015.59 1015.57 1015.54 1015.48 1015.41 1015.31 1015.18 1015.03 1014.85 1014.64 1014.42 1014.16 1013.87 1013.56 1013.22 1012.88 1012.53 1012.21
Thickness
5742 5740 5738 5737 5736 5734 5733 5731 5731 5730 5729 5729 5729 5730 5730 5730 5730 5729 5728 5727 5726 5725 5724 5723 5721 5720 5720 5719 5718 5717 5716 5715 5715 5714 5713 5713 5712 5711 5710 5709 5709 5708 5707
5741 5739 5737 5735 5734 5733 5732 5730 5729 5728 5728 5728 5728 5729 5729 5728 5728 5727 5727 5726 5724 5723 5723 5722 5721 5719 5718 5717 5716 5715 5714 5714 5713 5712 5712 5711 5711 5710 5709 5708 5707 5707 5706
5740 5738 5736 5734 5733 5732 5731 5729 5728 5727 5727 5726 5726 5727 5727 5727 5727 5726 5726 5724 5723 5723 5722 5721 5720 5718 5717 5716 5715 5714 5713 5712 5711 5711 5710 5709 5709 5708 5707 5706 5706 5705 5704
5739 5737 5735 5734 5733 5731 5730 5728 5727 5725 5725 5724 5724 5725 5726 5726 5726 5726 5725 5724 5723 5722 5721 5720 5719 5718 5716 5716 5714 5713 5712 5711 5710 5709 5708 5708 5707 5706 5706 5705 5704 5703 5703
5738 5737 5734 5733 5732 5731 5729 5728 5725 5724 5723 5722 5723 5724 5724 5724 5724 5724 5723 5723 5722 5721 5720 5719 5717 5716 5715 5715 5714 5712 5711 5710 5708 5708 5707 5706 5705 5704 5704 5703 5702 5702 5701
5737 5736 5733 5732 5731 5729 5727 5726 5724 5723 5723 5722 5723 5722 5722 5722 5723 5722 5722 5721 5721 5720 5719 5718 5716 5715 5714 5713 5712 5711 5710 5708 5707 5706 5705 5704 5704 5703 5702 5701 5701 5700 5699
5736 5735 5733 5731 5731 5728 5727 5726 5724 5722 5721 5721 5719 5716 5718 5720 5721 5720 5720 5720 5719 5718 5717 5716 5715 5713 5712 5711 5710 5709 5708 5706 5705 5704 5703 5703 5702 5701 5701 5699 5699 5698 5698
5735 5734 5732 5731 5730 5727 5725 5724 5723 5720 5719 5720 5715 5710 5706 5709 5714 5718 5717 5717 5717 5716 5715 5714 5713 5711 5710 5709 5708 5706 5705 5704 5703 5702 5701 5701 5700 5699 5698 5698 5697 5697 5696
5734 5733 5732 5730 5729 5727 5724 5723 5722 5719 5716 5717 5717 5711 5703 5700 5704 5710 5712 5713 5713 5713 5713 5712 5711 5709 5708 5706 5705 5704 5703 5702 5701 5699 5698 5698 5697 5696 5696 5695 5695 5695 5694
5732 5732 5731 5730 5728 5726 5724 5723 5722 5720 5717 5714 5714 5714 5712 5708 5702 5700 5705 5708 5710 5710 5710 5710 5708 5707 5705 5704 5702 5701 5699 5698 5697 5696 5695 5694 5694 5693 5693 5692 5692 5692 5692
5731 5730 5730 5729 5727 5725 5724 5723 5721 5719 5717 5714 5712 5711 5710 5707 5705 5700 5696 5699 5703 5706 5707 5707 5705 5704 5703 5701 5699 5697 5696 5694 5694 5693 5692 5691 5690 5689 5689 5689 5689 5689 5689
5728 5729 5729 5728 5726 5725 5723 5722 5720 5718 5716 5714 5712 5710 5708 5704 5701 5698 5695 5694 5694 5699 5703 5703 5702 5701 5700 5698 5696 5694 5692 5691 5690 5689 5688 5687 5686 5685 5685 5685 5685 5686 5686
5725 5727 5728 5727 5725 5724 5723 5721 5719 5717 5715 5713 5711 5709 5707 5705 5703 5699 5695 5691 5690 5692 5696 5698 5699 5698 5696 5694 5693 5691 5689 5687 5686 5685 5684 5683 5682 5681 5681 5681 5681 5682 5682
5727 5728 5727 5726 5724 5723 5721 5719 5717 5715 5713 5711 5710 5708 5705 5704 5703 5700 5696 5690 5685 5684 5687 5690 5694 5694 5692 5691 5689 5687 5685 5683 5682 5681 5680 5679 5678 5677 5677 5677 5677 5677 5678
5728 5727 5726 5724 5722 5721 5719 5717 5715 5713 5711 5709 5707 5706 5703 5702 5700 5699 5696 5692 5685 5678 5678 5683 5686 5689 5688 5686 5685 5683 5681 5680 5679 5677 5676 5676 5675 5674 5674 5673 5673 5673 5673
5728 5725 5724 5722 5720 5718 5717 5714 5712 5711 5708 5706 5705 5703 5700 5698 5697 5695 5693 5689 5686 5680 5674 5678 5680 5683 5683 5682 5681 5679 5678 5677 5675 5674 5674 5673 5672 5672 5671 5670 5670 5669 5669
5727 5725 5722 5720 5718 5716 5714 5712 5709 5708 5705 5703 5702 5699 5697 5695 5693 5691 5689 5686 5682 5678 5673 5674 5676 5678 5678 5677 5677 5676 5675 5673 5672 5671 5671 5670 5669 5669 5668 5667 5667 5666 5666
5726 5724 5722 5719 5716 5714 5712 5709 5707 5705 5702 5700 5698 5696 5694 5692 5689 5687 5684 5682 5679 5676 5672 5669 5670 5671 5672 5673 5672 5671 5671 5670 5669 5668 5667 5666 5666 5665 5664 5664 5663 5662 5661
5724 5722 5720 5717 5714 5712 5709 5707 5705 5702 5700 5698 5695 5692 5690 5688 5685 5682 5680 5677 5675 5673 5669 5665 5664 5665 5665 5667 5665 5665 5665 5664 5664 5663 5663 5662 5661 5661 5660 5659 5659 5658 5657
5722 5719 5717 5715 5712 5710 5707 5705 5702 5699 5697 5695 5693 5690 5688 5685 5682 5679 5676 5673 5670 5667 5664 5661 5659 5658 5658 5659 5658 5656 5655 5656 5656 5657 5657 5656 5656 5655 5655 5654 5653 5653 5653
5719 5717 5714 5711 5709 5706 5704 5701 5699 5696 5693 5690 5689 5687 5685 5683 5681 5677 5674 5669 5666 5662 5658 5655 5653 5651 5651 5650 5649 5649 5647 5648 5649 5650 5650 5650 5649 5649 5649 5648 5648 5648 5648
5715 5712 5710 5707 5704 5704 5702 5699 5696 5692 5689 5686 5684 5682 5681 5679 5677 5674 5672 5668 5664 5659 5654 5650 5647 5645 5646 5645 5644 5643 5641 5639 5638 5643 5641 5642 5643 5642 5643 5643 5643 5643 5643
5711 5708 5706 5703 5701 5700 5698 5695 5692 5688 5685 5682 5680 5677 5676 5676 5673 5670 5667 5665 5661 5659 5655 5651 5646 5644 5643 5642 5639 5637 5635 5633 5633 5636 5633 5634 5636 5636 5638 5638 5638 5638 5637
5708 5705 5702 5700 5697 5696 5693 5691 5688 5684 5680 5678 5676 5673 5670 5669 5667 5664 5661 5658 5656 5654 5651 5648 5646 5645 5643 5640 5636 5634 5631 5629 5630 5629 5627 5625 5630 5630 5633 5633 5633 5633 5633
5704 5701 5699 5696 5692 5691 5689 5686 5682 5677 5674 5672 5670 5668 5665 5663 5662 5658 5653 5650 5649 5649 5648 5645 5644 5642 5640 5636 5632 5626 5622 5619 5620 5623 5621 5618 5622 5623 5625 5627 5628 5627 5627
5701 5698 5695 5692 5688 5686 5684 5680 5675 5670 5666 5665 5663 5661 5660 5657 5655 5652 5647 5644 5641 5643 5641 5639 5637 5635 5633 5630 5627 5622 5619 5614 5613 5614 5616 5612 5614 5613 5614 5619 5620 5620 5619